• In Deutschland
  • Länderverzeichnis
  • Für 7 Tage
  • Wassertemperatur
  • Satellitenkarten
  • Wetterkarte
  • Widgets
  • user-avatar
    Anmelden

    Stündliche Wetter Dziubiele

    Heute, 19 August, Sonntag

    Zeit Temperatur Niederschläge Wind Luftdruck Luftfeuchtigkeit
    00:00 +16°C° 0 mm 2 m/S 754 mmHg 91%
    01:00 +15°C° 0 mm 1 m/S 754 mmHg 90%
    02:00 +15°C° 0 mm 1 m/S 754 mmHg 89%
    03:00 +15°C° 0 mm 1 m/S 754 mmHg 87%
    04:00 +15°C° 0 mm 1 m/S 754 mmHg 86%
    05:00 +16°C° 0 mm 1 m/S 754 mmHg 82%
    06:00 +18°C° 0 mm 1 m/S 754 mmHg 79%
    07:00 +20°C° 0 mm 1 m/S 754 mmHg 75%
    08:00 +21°C° 0 mm 1 m/S 754 mmHg 67%
    09:00 +23°C° 0 mm 2 m/S 754 mmHg 60%
    10:00 +25°C° 0 mm 2 m/S 754 mmHg 52%
    11:00 +25°C° 0 mm 2 m/S 754 mmHg 51%
    12:00 +26°C° 0 mm 3 m/S 754 mmHg 49%
    13:00 +27°C° 0 mm 3 m/S 754 mmHg 48%
    14:00 +26°C° 0 mm 2 m/S 754 mmHg 49%
    15:00 +26°C° 0 mm 2 m/S 753 mmHg 51%
    16:00 +26°C° 0 mm 2 m/S 753 mmHg 52%
    17:00 +25°C° 0 mm 2 m/S 753 mmHg 58%
    18:00 +23°C° 0 mm 1 m/S 753 mmHg 65%
    19:00 +21°C° 0 mm 1 m/S 753 mmHg 71%
    20:00 +21°C° 0 mm 1 m/S 753 mmHg 72%
    21:00 +20°C° 0 mm 1 m/S 753 mmHg 74%
    22:00 +19°C° 0 mm 1 m/S 753 mmHg 76%
    23:00 +18°C° 0 mm 2 m/S 752 mmHg 76%

    Morgen, 20 August, Montag

    Zeit Temperatur Niederschläge Wind Luftdruck Luftfeuchtigkeit
    00:00 +18°C° 0 mm 2 m/S 752 mmHg 76%
    01:00 +18°C° 0 mm 2 m/S 752 mmHg 76%
    02:00 +17°C° 0 mm 2 m/S 752 mmHg 76%
    03:00 +17°C° 0 mm 2 m/S 751 mmHg 76%
    04:00 +17°C° 0 mm 3 m/S 751 mmHg 77%
    05:00 +18°C° 0 mm 3 m/S 751 mmHg 74%
    06:00 +20°C° 0 mm 3 m/S 750 mmHg 72%
    07:00 +21°C° 0 mm 4 m/S 750 mmHg 69%
    08:00 +23°C° 0 mm 4 m/S 750 mmHg 65%
    09:00 +26°C° 0 mm 4 m/S 750 mmHg 60%
    10:00 +28°C° 0 mm 5 m/S 749 mmHg 56%
    11:00 +28°C° 0,4 mm 5 m/S 749 mmHg 55%
    12:00 +28°C° 0,4 mm 5 m/S 749 mmHg 55%
    13:00 +29°C° 0,4 mm 5 m/S 748 mmHg 55%
    14:00 +28°C° 0,3 mm 5 m/S 748 mmHg 57%
    15:00 +28°C° 0,3 mm 4 m/S 748 mmHg 59%
    16:00 +27°C° 0,3 mm 4 m/S 747 mmHg 60%
    17:00 +26°C° 0,1 mm 3 m/S 747 mmHg 65%
    18:00 +25°C° 0,1 mm 3 m/S 747 mmHg 69%
    19:00 +22°C° 0,1 mm 3 m/S 747 mmHg 74%
    20:00 +21°C° 0 mm 3 m/S 747 mmHg 78%
    21:00 +20°C° 0 mm 3 m/S 747 mmHg 82%
    22:00 +19°C° 0 mm 4 m/S 748 mmHg 86%
    23:00 +18°C° 0 mm 4 m/S 748 mmHg 87%

    übermorgen, 21 August, Dienstag

    Zeit Temperatur Niederschläge Wind Luftdruck Luftfeuchtigkeit
    00:00 +17°C° 0 mm 4 m/S 748 mmHg 87%
    01:00 +15°C° 0 mm 4 m/S 748 mmHg 88%
    02:00 +15°C° 0 mm 4 m/S 749 mmHg 88%
    03:00 +14°C° 0 mm 4 m/S 749 mmHg 89%
    04:00 +13°C° 0 mm 3 m/S 749 mmHg 89%
    05:00 +15°C° 0 mm 4 m/S 750 mmHg 86%
    06:00 +17°C° 0 mm 4 m/S 750 mmHg 83%
    07:00 +18°C° 0 mm 4 m/S 751 mmHg 80%
    08:00 +19°C° 0 mm 4 m/S 751 mmHg 73%
    09:00 +20°C° 0 mm 4 m/S 752 mmHg 66%
    10:00 +21°C° 0 mm 4 m/S 752 mmHg 60%
    11:00 +22°C° 0,1 mm 3 m/S 752 mmHg 58%
    12:00 +22°C° 0,1 mm 3 m/S 752 mmHg 56%
    13:00 +22°C° 0,1 mm 3 m/S 753 mmHg 55%
    14:00 +22°C° 0,1 mm 3 m/S 753 mmHg 57%
    15:00 +22°C° 0,1 mm 3 m/S 753 mmHg 59%
    16:00 +21°C° 0,1 mm 4 m/S 753 mmHg 61%
    17:00 +20°C° 0 mm 3 m/S 753 mmHg 67%
    18:00 +18°C° 0 mm 3 m/S 754 mmHg 73%
    19:00 +17°C° 0 mm 2 m/S 754 mmHg 79%
    20:00 +16°C° 0 mm 2 m/S 754 mmHg 83%
    21:00 +15°C° 0 mm 2 m/S 755 mmHg 86%
    22:00 +14°C° 0 mm 2 m/S 755 mmHg 89%
    23:00 +13°C° 0 mm 1 m/S 755 mmHg 90%

    22 August, Mittwoch

    Zeit Temperatur Niederschläge Wind Luftdruck Luftfeuchtigkeit
    00:00 +13°C° 0 mm 1 m/S 755 mmHg 91%
    01:00 +13°C° 0 mm 1 m/S 756 mmHg 91%
    02:00 +12°C° 0 mm 1 m/S 756 mmHg 91%
    03:00 +12°C° 0 mm 1 m/S 756 mmHg 91%
    04:00 +12°C° 0 mm 1 m/S 756 mmHg 91%
    05:00 +13°C° 0 mm 1 m/S 756 mmHg 85%
    06:00 +14°C° 0 mm 1 m/S 756 mmHg 79%
    07:00 +16°C° 0 mm 1 m/S 756 mmHg 74%
    08:00 +18°C° 0 mm 1 m/S 756 mmHg 67%
    09:00 +19°C° 0 mm 2 m/S 756 mmHg 61%
    10:00 +21°C° 0 mm 2 m/S 756 mmHg 54%
    11:00 +23°C° 0 mm 2 m/S 756 mmHg 51%
    12:00 +23°C° 0 mm 2 m/S 756 mmHg 47%
    13:00 +24°C° 0 mm 2 m/S 755 mmHg 44%
    14:00 +25°C° 0 mm 2 m/S 755 mmHg 45%
    15:00 +25°C° 0 mm 2 m/S 754 mmHg 45%
    16:00 +25°C° 0 mm 1 m/S 754 mmHg 46%
    17:00 +23°C° 0 mm 1 m/S 754 mmHg 51%
    18:00 +20°C° 0 mm 2 m/S 754 mmHg 57%
    19:00 +19°C° 0 mm 2 m/S 754 mmHg 63%
    20:00 +18°C° 0 mm 2 m/S 754 mmHg 64%
    21:00 +17°C° 0 mm 2 m/S 754 mmHg 65%
    22:00 +17°C° 0 mm 3 m/S 754 mmHg 67%
    23:00 +16°C° 0 mm 3 m/S 753 mmHg 69%

    23 August, Donnerstag

    Zeit Temperatur Niederschläge Wind Luftdruck Luftfeuchtigkeit
    00:00 +16°C° 0 mm 3 m/S 753 mmHg 71%
    01:00 +16°C° 0 mm 3 m/S 753 mmHg 73%
    02:00 +16°C° 0 mm 3 m/S 753 mmHg 76%
    03:00 +14°C° 0 mm 3 m/S 753 mmHg 79%
    04:00 +14°C° 0 mm 3 m/S 753 mmHg 82%
    05:00 +17°C° 0 mm 3 m/S 752 mmHg 78%
    06:00 +18°C° 0 mm 3 m/S 752 mmHg 75%
    07:00 +19°C° 0 mm 3 m/S 752 mmHg 72%
    08:00 +21°C° 0 mm 3 m/S 752 mmHg 66%
    09:00 +24°C° 0 mm 3 m/S 752 mmHg 61%
    10:00 +26°C° 0 mm 3 m/S 752 mmHg 56%
    11:00 +26°C° 0 mm 3 m/S 752 mmHg 53%
    12:00 +27°C° 0 mm 3 m/S 751 mmHg 50%
    13:00 +28°C° 0 mm 3 m/S 751 mmHg 47%
    14:00 +27°C° 0 mm 3 m/S 751 mmHg 48%
    15:00 +27°C° 0 mm 2 m/S 750 mmHg 49%
    16:00 +27°C° 0 mm 2 m/S 750 mmHg 50%
    17:00 +25°C° 0 mm 2 m/S 750 mmHg 55%
    18:00 +23°C° 0 mm 2 m/S 750 mmHg 59%
    19:00 +21°C° 0 mm 2 m/S 749 mmHg 64%
    20:00 +20°C° 0 mm 3 m/S 749 mmHg 67%
    21:00 +19°C° 0 mm 3 m/S 749 mmHg 69%
    22:00 +18°C° 0 mm 3 m/S 749 mmHg 72%
    23:00 +18°C° 0 mm 3 m/S 749 mmHg 77%

    24 August, Freitag

    Zeit Temperatur Niederschläge Wind Luftdruck Luftfeuchtigkeit
    00:00 +18°C° 0 mm 3 m/S 749 mmHg 81%
    01:00 +17°C° 0 mm 3 m/S 748 mmHg 85%
    02:00 +17°C° 0 mm 3 m/S 748 mmHg 88%
    03:00 +17°C° 0 mm 3 m/S 748 mmHg 90%
    04:00 +16°C° 0 mm 3 m/S 747 mmHg 92%
    05:00 +18°C° 0 mm 3 m/S 747 mmHg 88%
    06:00 +19°C° 0 mm 4 m/S 747 mmHg 84%
    07:00 +20°C° 0 mm 4 m/S 747 mmHg 80%
    08:00 +22°C° 0 mm 4 m/S 746 mmHg 73%
    09:00 +25°C° 0 mm 4 m/S 746 mmHg 67%
    10:00 +27°C° 0 mm 4 m/S 746 mmHg 60%
    11:00 +28°C° 0 mm 4 m/S 746 mmHg 56%
    12:00 +29°C° 0 mm 4 m/S 745 mmHg 51%
    13:00 +30°C° 0 mm 4 m/S 745 mmHg 46%
    14:00 +30°C° 0 mm 4 m/S 745 mmHg 50%
    15:00 +29°C° 0 mm 3 m/S 744 mmHg 54%
    16:00 +28°C° 0 mm 3 m/S 744 mmHg 58%
    17:00 +27°C° 0,4 mm 3 m/S 744 mmHg 63%
    18:00 +25°C° 0,4 mm 4 m/S 743 mmHg 67%
    19:00 +23°C° 0,4 mm 4 m/S 743 mmHg 72%
    20:00 +22°C° 0,7 mm 3 m/S 743 mmHg 77%
    21:00 +21°C° 0,7 mm 3 m/S 744 mmHg 82%
    22:00 +20°C° 0,7 mm 3 m/S 744 mmHg 88%
    23:00 +19°C° 0,9 mm 3 m/S 744 mmHg 90%
    Mehr zeigen